Regional Weather Roundup
Issued by NWS

Home | Current Version | Previous Version | Text Only | Print | Product List | Glossary On
Versions: 1 2 3 4 5 6 7 8 9 10 11 12 13 14 15 16 17 18 19 20 21 22 23 24 25 26 27
000
ASUS42 KKEY 250910
RWRKEY

FLORIDA REGIONAL WEATHER ROUNDUP FOR THE FLORIDA KEYS
NATIONAL WEATHER SERVICE KEY WEST FLORIDA
500 AM EDT THU MAY 25 2017

...SOUTH FLORIDA AND THE KEYS...

CITY           SKY/WX    TMP DP  RH WIND       PRES   REMARKS
FORT MYERS     MOCLDY    79  73  82 SW10      29.79R
SW REGIONAL AP MOCLDY    78  71  79 SW13      29.80S
NAPLES         CLOUDY    80  73  79 SW14      29.80F
MIAMI          MOCLDY    79  74  84 S7        29.84S
WEST KENDALL   CLOUDY    78  74  87 S6        29.84S
HOMESTEAD      CLOUDY    78  78 100 SW8       29.84R
MARATHON       CLEAR     83  79  88 S9G20     29.84F HX  94
BOCA CHICA NAS MOCLDY    81  79  94 S13       29.84S HX  90
KEY WEST INTL  CLOUDY    82  78  88 S10       29.84S HX  91

...INTERNATIONAL WEATHER...

CITY           SKY/WX    TMP DP  RH WIND       PRES   REMARKS
NASSAU BAHAMAS MOCLDY    84  73  70 S9        29.92R HX  91
CANCUN MEXICO  CLOUDY    70  70 100 CALM      29.83F
COZUMEL MEXICO PTCLDY    75  75 100 CALM      29.81F

ADJACENT COASTAL WATERS...

STATION/POSITION TIME  SKY/WX   TEMP    WIND        PRES    WAVE
                                AIR SEA DIR/SP/G            HT/PER
                 (UTC)          (F)     (DEG/KT/KT) (MB)    (FT/S)
PULASKI SHOAL LI 0900            81     190/ 10/ 12 1010.0R
SAND KEY         0850            81     200/ 12/ 14 1010.9F
LONG KEY         0800            80 83  210/ 10/ 11 1010.6F
MOLASSES REEF    0800            81 81  270/  5/  8 1010.6F
FOWEY ROCKS      0800            81 82  200/ 20/ 23 1010.8F
Buoy 42097       0900                                 N/A     6/ 7

$$




USA.gov is the U.S. government's official web portal to all federal, state and local government web resources and services.